This demonstration page uses our WeatherBlox Daily Observations layout. Learn more.

Left ArrowRight Arrow

39.01783, -85.05884

Hourly Observations for June 25, 2017

Temp ( °F °C ) Dew Point ( °F °C ) Humidity (%) Winds ( mph kmh ) Pressure ( in mb ) Visibility ( mi km ) Precip ( " mm )
12:52 am 00:52 Mostly Clear 62 16.7 53 11.7 73 73 WNW 6 9 30.09 1019 10 16 0.00 0.00
1:52 am 01:52 Clear 61 16.1 52 11.1 72 72 W 6 9 30.09 1019 10 16 0.00 0.00
2:52 am 02:52 Clear 59 15 51 10.6 75 75 W 6 9 30.09 1019 10 16 0.00 0.00
3:52 am 03:52 Clear 55 12.8 51 10.6 87 87 Calm 30.08 1019 10 16 0.00 0.00
4:52 am 04:52 Clear 52 11.1 51 10.6 97 97 S 5 7 30.09 1019 10 16 0.00 0.00
5:52 am 05:52 Clear 54 12.2 51 10.6 90 90 Calm 30.11 1020 10 16 0.00 0.00
6:52 am 06:52 Mostly Sunny 54 12.2 52 11.1 93 93 SSW 3 6 30.12 1020 10 16 0.00 0.00
7:52 am 07:52 Sunny 61 16.1 53 11.7 75 75 SW 5 7 30.13 1020 10 16 0.00 0.00
8:52 am 08:52 Sunny 65 18.3 51 10.6 61 61 WSW 8 13 30.14 1021 10 16 0.00 0.00
9:52 am 09:52 Sunny 69 20.6 50 10 51 51 WSW 12 19 30.14 1021 10 16 0.00 0.00
10:52 am 10:52 Sunny 72 22.2 50 10 46 46 W 15 24 30.14 1021 10 16 0.00 0.00
11:52 am 11:52 Sunny 75 23.9 49 9.4 40 40 W 20 31 30.14 1021 10 16 0.00 0.00
12:52 pm 12:52 Mostly Sunny 76 24.4 50 10 40 40 W 14 22 30.13 1020 10 16 0.00 0.00
1:52 pm 13:52 Partly Cloudy 76 24.4 50 10 40 40 W 13 20 30.11 1020 10 16 0.00 0.00
2:52 pm 14:52 Partly Cloudy 75 23.9 49 9.4 40 40 W 17 28 30.10 1019 10 16 0.00 0.00
3:52 pm 15:52 Partly Cloudy 75 23.9 47 8.3 37 37 W 12 19 30.09 1019 10 16 0.00 0.00
4:52 pm 16:52 Partly Cloudy 78 25.6 48 8.9 35 35 W 18 30 30.09 1019 10 16 0.00 0.00
5:52 pm 17:52 Partly Cloudy 77 25 48 8.9 36 36 WNW 13 20 30.08 1019 10 16 0.00 0.00
6:52 pm 18:52 Partly Cloudy 76 24.4 48 8.9 37 37 WNW 16 26 30.07 1018 10 16 0.00 0.00
7:52 pm 19:52 Partly Cloudy 73 22.8 48 8.9 41 41 WNW 12 19 30.08 1019 10 16 0.00 0.00
8:52 pm 20:52 Mostly Sunny 70 21.1 50 10 49 49 WNW 8 13 30.09 1019 10 16 0.00 0.00
9:52 pm 21:52 Partly Cloudy 66 18.9 50 10 56 56 WNW 3 6 30.10 1019 10 16 0.00 0.00
10:52 pm 22:52 Mostly Clear 64 17.8 49 9.4 58 58 W 5 7 30.11 1020 10 16 0.00 0.00
11:52 pm 23:52 Mostly Clear 62 16.7 49 9.4 62 62 Calm 30.11 1020 10 16 0.00 0.00

Powered by AerisWeather